Location: Newark
(37.6333°N, 5.2500°W)
Time: 20:00:04
(UTC+00:00)

ISS - Visible Passes

Search period start: 20 October 2019 00:00
Search period end: 30 October 2019 00:00
Orbit: 411 x 421 km, 51.6° (Epoch: 20 October)

Date Brightness Start Highest point End Pass type
(mag) Time Alt. Az. Time Alt. Az. Time Alt. Az.
23 Oct -1.3 05:33:15 10° S 05:35:58 23° SE 05:38:42 10° ENE visible
24 Oct -0.7 04:45:57 10° SSE 04:47:33 13° SE 04:49:07 10° E visible
25 Oct -3.6 05:32:24 13° SW 05:35:17 75° SE 05:38:38 10° NE visible
26 Oct -2.6 04:46:39 38° SE 04:46:43 38° SE 04:49:53 10° ENE visible
27 Oct -0.2 04:00:39 11° E 04:00:39 11° E 04:00:49 10° E visible
27 Oct -3.1 05:33:35 27° WNW 05:34:46 37° NW 05:37:56 10° NE visible
28 Oct -2.3 04:47:24 32° NNE 04:47:24 32° NNE 04:49:25 10° NE visible
29 Oct -2.0 05:34:00 17° NW 05:34:26 18° NNW 05:36:50 10° NNE visible
